Weather History for KBIV - January, 2014

Change the Weather History Date:

Tuesday, January 21, 2014

  Actual Average Record
Temperature  
Mean Temperature 9 °F 26 °F  
Max Temperature 13 °F 32 °F 47 °F (1957)
Min Temperature 5 °F 20 °F -6 °F (1984)
Degree Days  
Heating Degree Days 56 39  
Month to date heating degree days 922 810  
Since 1 July heating degree days 3338 3078  
Cooling Degree Days 0 0  
Month to date cooling degree days 0 0  
Year to date cooling degree days 0 0  
Moisture  
Dew Point -1 °F    
Average Humidity 61    
Maximum Humidity 73    
Minimum Humidity 48    
Precipitation  
Precipitation T in 0.06 in 0.64 in (1959)
Month to date precipitation 1.56 1.41  
Year to date precipitation 1.56 1.41  
Sea Level Pressure  
Sea Level Pressure 30.23 in    
Wind  
Wind Speed 5 mph (ENE)    
Max Wind Speed 12 mph    
Max Gust Speed 15 mph    
Visibility 10 miles    
Events      
T = Trace of Precipitation, MM = Missing Value Source: NWS Daily Summary

Daily Weather History Graph

Daily Weather History Graph

Search for Another Location

Airport or City:

Trip Planner

Search our weather history database for the weather conditions in past years. The results will help you decide how hot, cold, wet, or windy it might be!

Date:

Astronomy

Jan. 21, 2014 Rise Set
Actual Time 8:08 AM EST 5:43 PM EST
Civil Twilight 7:37 AM EST 6:14 PM EST
Nautical Twilight 7:03 AM EST 6:48 PM EST
Astronomical Twilight 6:29 AM EST 7:22 PM EST
Moon 11:24 PM EST (1/21) 10:29 AM EST (1/21)
Length of Visible Light 10h 36m
Length of Day
9h 34m
Waning Gibbous, 75% of the Moon is Illuminated
Jan 21
Waning Gibbous
Jan 24
Last Quarter
Jan 30
New
Feb 6
First Quarter
Feb 14
Full

Hourly Weather History & Observations

Time (EST) Temp. Windchill Dew Point Humidity Pressure Visibility Wind Dir Wind Speed Gust Speed Precip Events Conditions
12:53 AM 10.9 °F -0.8 °F 1.0 °F 64% 30.14 in 10.0 mi NNE 8.1 mph - N/A   Scattered Clouds
1:53 AM 10.0 °F -2.9 °F -2.9 °F 56% 30.14 in 10.0 mi NE 9.2 mph - N/A   Scattered Clouds
2:53 AM 9.0 °F -2.2 °F -2.9 °F 59% 30.16 in 10.0 mi NE 6.9 mph - N/A   Clear
3:53 AM 8.1 °F -3.2 °F -4.0 °F 58% 30.18 in 10.0 mi ENE 6.9 mph - N/A   Clear
4:53 AM 8.1 °F -0.5 °F -4.0 °F 58% 30.19 in 10.0 mi ENE 4.6 mph - N/A   Mostly Cloudy
5:53 AM 8.1 °F -0.5 °F -2.9 °F 61% 30.22 in 10.0 mi NNE 4.6 mph - N/A   Overcast
6:53 AM 8.1 °F -2.0 °F -4.0 °F 58% 30.23 in 10.0 mi NE 5.8 mph - N/A   Overcast
7:53 AM 6.1 °F - -4.0 °F 63% 30.24 in 10.0 mi Calm Calm - N/A   Partly Cloudy
8:53 AM 7.0 °F -3.3 °F -4.0 °F 61% 30.26 in 10.0 mi NE 5.8 mph - N/A   Mostly Cloudy
9:53 AM 8.1 °F -3.2 °F -2.9 °F 61% 30.27 in 10.0 mi ENE 6.9 mph - N/A   Overcast
10:53 AM 8.1 °F -3.2 °F -2.9 °F 61% 30.29 in 10.0 mi East 6.9 mph - N/A   Partly Cloudy
11:53 AM 10.0 °F -0.9 °F -2.9 °F 56% 30.28 in 10.0 mi East 6.9 mph - N/A   Scattered Clouds
12:53 PM 12.0 °F 4.1 °F -2.9 °F 51% 30.26 in 10.0 mi Variable 4.6 mph - N/A   Partly Cloudy
1:53 PM 12.0 °F 0.5 °F -4.0 °F 49% 30.25 in 10.0 mi NE 8.1 mph - N/A   Partly Cloudy
2:53 PM 12.9 °F 5.2 °F -2.0 °F 51% 30.24 in 10.0 mi Variable 4.6 mph - N/A   Overcast
3:53 PM 12.0 °F 0.5 °F -0.0 °F 59% 30.23 in 10.0 mi NE 8.1 mph - N/A   Overcast
4:53 PM 10.9 °F 4.7 °F 1.0 °F 64% 30.25 in 10.0 mi ENE 3.5 mph - N/A   Overcast
5:53 PM 10.9 °F 2.9 °F 1.0 °F 64% 30.26 in 10.0 mi ESE 4.6 mph - N/A   Overcast
6:53 PM 10.9 °F 4.7 °F 3.0 °F 70% 30.25 in 9.0 mi SE 3.5 mph - N/A   Overcast
7:53 PM 10.0 °F 1.8 °F 3.9 °F 76% 30.24 in 10.0 mi SSE 4.6 mph - N/A   Overcast
8:53 PM 10.0 °F - 3.0 °F 73% 30.22 in 10.0 mi Calm Calm - N/A   Overcast
9:53 PM 10.0 °F - 3.0 °F 73% 30.22 in 10.0 mi Calm Calm - N/A   Overcast
10:53 PM 10.0 °F 3.6 °F 3.0 °F 73% 30.22 in 10.0 mi SSE 3.5 mph - N/A   Overcast
11:53 PM 10.0 °F 0.4 °F 3.9 °F 76% 30.21 in 10.0 mi SSE 5.8 mph - 0.00 in   Overcast